Lexington Weather

Lexington, Massachusetts, USA

33°F
12/8/2019 3:33pm 
  • Lexington Conditions: Mostly cloudy
  • Temperature: 33.4°F / 0.8°CColder 0.9°F than last hour.
  • Dew Point: 17.2°FIncreased 2.5°Fsince last hour.
  • Relative Humidity: 51%Increased 7.0% since last hour.
  • Wind: Wind from WSW WSW 1 mph, 10-min avg: 1 mph, gust: 6 mph
  • Barometer: 30.40 in Steady
  • Visibility: 10 miles
  • Snow Today: 0.0 in
  •   

Regional Weather Roundup
for Boston / Norton, MA

        
000
ASUS41 KBOX 071510
RWRBOX

REGIONAL WEATHER ROUNDUP
NATIONAL WEATHER SERVICE BOSTON/NORTON MA
1000 AM EST SAT DEC 07 2019

NOTE:  "FAIR" INDICATES FEW OR NO CLOUDS BELOW 12,000 FEET WITH NO 
SIGNIFICANT WEATHER AND/OR OBSTRUCTIONS TO VISIBILITY.

MAZALL-071600-
EASTERN MASSACHUSETTS
  
CITY           SKY/WX    TMP DP  RH WIND       PRES   REMARKS
BOSTON         FAIR      31  14  49 NW12      30.31R WCI  22          
BEVERLY        FAIR      27  14  58 NW10      30.29R WCI  17          
LAWRENCE       FAIR      25  14  63 NW7       30.32R WCI  17          
BEDFORD        FAIR      27  13  55 NW10      30.30R WCI  17          
BLUE HILL        N/A     25  14  63 NW12G21   30.26R WCI  14          
NORWOOD        FAIR      32  15  49 NW12      30.31R WCI  23          
MARSHFIELD     FAIR      32  16  51 NW10G17   30.30S WCI  24          
PLYMOUTH       FAIR      29  16  58 NW12      30.29R WCI  19          
TAUNTON        FAIR      32  17  54 NW7       30.31R WCI  26          
NEW BEDFORD    FAIR      31  17  56 NW10      30.30R WCI  22          
$$

MAZALL-071600-
CAPE COD AND THE ISLANDS
  
CITY           SKY/WX    TMP DP  RH WIND       PRES   REMARKS
FALMOUTH       SUNNY     30  16  55 N9G17     30.29R WCI  22          
HYANNIS        FAIR      33  19  56 NW13G22   30.27R WCI  24          
CHATHAM        PTSUNNY   34  21  59 VRB5      30.28S WCI  30          
PROVINCETOWN   PTSUNNY   32  22  66 NW14      30.30R WCI  22          
NANTUCKET      FAIR      34  23  64 NW17      30.28R WCI  23          
MARTHAS VNYRD  FAIR      33  18  53 NW15G21   30.30R WCI  23          
$$
 
MAZALL-071600-
CENTRAL AND WESTERN MASSACHUSETTS
  
CITY           SKY/WX    TMP DP  RH WIND       PRES   REMARKS
WORCESTER      FAIR      23  13  65 W13       30.26R WCI  11          
FITCHBURG      FAIR      26  14  60 NW8       30.31R WCI  18          
ORANGE         FAIR      19  16  88 NE3       30.31R                  
SPRINGFIELD    MOSUNNY   22  13  69 CALM      30.33R                  
WESTFIELD      FAIR      28  16  60 NW9       30.33R WCI  19          
NORTH ADAMS    CLOUDY    25  15  66 W8        30.31R WCI  16          
PITTSFIELD     CLOUDY    22  16  78 VRB7G18   30.27R WCI  13          
$$
 
RIZALL-071600-
RHODE ISLAND
  
CITY           SKY/WX    TMP DP  RH WIND       PRES   REMARKS
PROVIDENCE     FAIR      31  17  56 NW10      30.32R WCI  22          
NEWPORT        FAIR      32  17  54 NW13      30.31R WCI  22          
BLOCK ISLAND   FAIR      32  18  56 NW10G17   30.33R WCI  24          
SMITHFIELD     FAIR      28  16  60 NW9       30.29S WCI  19          
WESTERLY       FAIR      35  14  42 VRB7G21   30.33R WCI  29          
$$
 
CTZALL-071600-
CONNECTICUT
  
CITY           SKY/WX    TMP DP  RH WIND       PRES   REMARKS
BRADLEY INTL   FAIR      32  17  54 NW3       30.34R                  
HARTFORD       FAIR      31  18  58 NW7       30.36R WCI  24          
BRIDGEPORT     FAIR      36  19  50 NW13      30.36R WCI  27          
DANBURY        PTSUNNY   30  19  63 CALM      30.35R                  
GROTON         FAIR      34  18  52 NW14G24   30.33S WCI  25          
NEW HAVEN      FAIR      37  20  50 NW6       30.35R                  
CHESTER          N/A     32  18  55 NW9       30.33R WCI  24          
MERIDEN        FAIR      30  18  60 CALM      30.36R                  
WILLIMANTIC    FAIR      30  16  56 NW9       30.35R WCI  22          
OXFORD         FAIR      28  18  66 NW6       30.33R WCI  22          
$$

MEZ002-015-021-024-NHZ003-005-008-011-012-014-VTZ005-008-071600-
NORTHERN NEW ENGLAND
  
CITY           SKY/WX    TMP DP  RH WIND       PRES   REMARKS
PORTLAND ME    FAIR      26  14  60 NW8       30.28R WCI  18          
BANGOR ME      FAIR      20   9  62 NW13      30.24R WCI   7          
CONCORD NH     FAIR      23  13  65 NW7       30.30R WCI  15          
MANCHESTER NH  FAIR      26  13  57 NW6       30.29R WCI  19          
NASHUA NH      FAIR      27  17  66 NW8       30.32R WCI  19          
PORTSMOUTH NH  SUNNY     26  14  60 W9        30.27R WCI  16          
JAFFREY NH     FAIR      22  13  68 CALM      30.25R                  
KEENE NH       FAIR      29  22  75 CALM      30.31R                  
BURLINGTON VT  LGT SNOW  24  14  65 NW9       30.32R WCI  14          
MT. WASHINGTON PTSUNNY    1  -4  78 NW37        N/A  WCI -26          
$$

NYZ052-076-071600-
EASTERN NEW YORK
  
CITY           SKY/WX    TMP DP  RH WIND       PRES   REMARKS
ALBANY         PTSUNNY   27  18  69 CALM      30.37R                  
NEW YORK CITY  PTSUNNY   35  19  52 NW21G29   30.36S WCI  24          
$$
 
ANZALL-071600-
MARINE OBSERVATIONS
  
STATION/POSITION TIME  TEMP    WIND        PRES    VSBY  WAVE
                       AIR SEA DIR/SP/G                  HT/PER
                 (UTC) (F)     (DEG/KT/KT) (MB)    (MI)  (FT/S)
BOSTON BUOY      1450   30 47  320/ 17/ 21 1025.0R         3/ 4
BUZZARDS BAY     1400   30     320/ 11/ 13 1026.6R
NANTUCKET SOUND  1450   30 42                N/A           2/ 3
MASS BAY-STELLWA 1404   27 46  340/ 17/ 21 1023.4R  1 7/8  3/ 3
ISLE OF SHOALS   1400   25     310/ 16/ 18 1024.6R
S OF BLOCK IS    1500      52                N/A           4/ 4
$$

......................KEY.........................
  SKY/WX - SKY CONDITION/PRESENT WEATHER
  TMP    - TEMPERATURE IN FAHRENHEIT
  DWPT   - DEWPOINT IN FAHRENHEIT
  RH     - RELATIVE HUMIDITY IN PERCENT
  WIND   - DIRECTION AND SPEED IN MPH
  PRES   - MEAN SEA LEVEL PRESSURE IN INCHES OF HG
  WCI    - WIND CHILL INDEX
  VSB    - VISIBILITY IN MILES
  HX     - HEAT INDEX
  TC     - TEMPERATURE IN CELSIUS
  VRB    - VARIABLE WIND DIRECTION
  N/A    - NOT AVAILABLE
  
      

Other recent Regional Weather Roundups

Sun Dec 8, 3:10pm

Sun Dec 8, 3:01pm

Sun Dec 8, 2:10pm

Sun Dec 8, 2:01pm

Sun Dec 8, 1:10pm

Sun Dec 8, 1:00pm

Sun Dec 8, 12:10pm

Sun Dec 8, 12:01pm

Sun Dec 8, 11:10am

Sun Dec 8, 11:00am

Sun Dec 8, 10:10am

Sun Dec 8, 10:01am

Sun Dec 8, 9:10am

Sun Dec 8, 9:00am

Sun Dec 8, 8:10am

Sun Dec 8, 8:00am

Sun Dec 8, 7:10am

Sun Dec 8, 7:00am

Sun Dec 8, 6:10am

Sun Dec 8, 6:00am

Sun Dec 8, 5:10am

Sun Dec 8, 5:00am

Sun Dec 8, 4:10am

Sun Dec 8, 4:00am

Sun Dec 8, 3:10am

Sun Dec 8, 3:00am

Sun Dec 8, 2:10am

Sun Dec 8, 2:00am

Sun Dec 8, 1:10am

Sun Dec 8, 1:00am

Sun Dec 8, 12:10am

Sun Dec 8, 12:01am

Sat Dec 7, 11:10pm

Sat Dec 7, 11:00pm

Sat Dec 7, 10:10pm

Sat Dec 7, 10:00pm

Sat Dec 7, 9:10pm

Sat Dec 7, 9:00pm

Sat Dec 7, 8:10pm

Sat Dec 7, 8:00pm

Sat Dec 7, 7:10pm

Sat Dec 7, 7:00pm

Sat Dec 7, 6:10pm

Sat Dec 7, 6:00pm

Sat Dec 7, 5:10pm

Sat Dec 7, 5:00pm

Sat Dec 7, 4:10pm

Sat Dec 7, 4:00pm

Sat Dec 7, 3:10pm

Sat Dec 7, 3:00pm

Sat Dec 7, 2:10pm

Sat Dec 7, 2:01pm

Sat Dec 7, 1:10pm

Sat Dec 7, 1:00pm

Sat Dec 7, 12:10pm

Sat Dec 7, 12:01pm

Sat Dec 7, 11:10am

Sat Dec 7, 11:00am

Sat Dec 7, 10:01am

Sat Dec 7, 9:10am

Sat Dec 7, 9:00am

Sat Dec 7, 8:10am

Sat Dec 7, 8:00am

Sat Dec 7, 7:10am

Sat Dec 7, 7:00am

Sat Dec 7, 6:10am

Sat Dec 7, 6:00am

Sat Dec 7, 5:10am

Sat Dec 7, 5:00am

Sat Dec 7, 4:10am

Sat Dec 7, 4:00am

Sat Dec 7, 3:10am

Sat Dec 7, 3:00am

Sat Dec 7, 2:10am

Sat Dec 7, 2:01am

Sat Dec 7, 1:10am

Sat Dec 7, 1:00am

Sat Dec 7, 12:10am

Sat Dec 7, 12:01am

Fri Dec 6, 11:10pm

Fri Dec 6, 11:00pm

Fri Dec 6, 10:10pm

Fri Dec 6, 10:00pm

Fri Dec 6, 9:10pm

Fri Dec 6, 9:00pm

Fri Dec 6, 8:10pm

Fri Dec 6, 8:00pm

Fri Dec 6, 7:10pm

Fri Dec 6, 7:01pm

Fri Dec 6, 6:10pm

Fri Dec 6, 6:00pm

Fri Dec 6, 5:10pm

Fri Dec 6, 5:00pm

Fri Dec 6, 4:10pm

Fri Dec 6, 4:00pm

Fri Dec 6, 3:10pm

Fri Dec 6, 3:00pm

Fri Dec 6, 2:10pm

Fri Dec 6, 2:00pm

Fri Dec 6, 1:10pm

Fri Dec 6, 1:00pm

Fri Dec 6, 12:10pm

Fri Dec 6, 12:00pm

Fri Dec 6, 11:10am

Fri Dec 6, 11:00am

Fri Dec 6, 10:10am

Fri Dec 6, 10:00am

Fri Dec 6, 9:10am

Fri Dec 6, 9:00am

Fri Dec 6, 8:10am

Fri Dec 6, 8:00am

Fri Dec 6, 7:10am

Fri Dec 6, 7:00am

Fri Dec 6, 6:10am

Fri Dec 6, 6:01am

Fri Dec 6, 5:10am

Fri Dec 6, 5:00am

Fri Dec 6, 4:10am

Fri Dec 6, 4:00am

Fri Dec 6, 3:10am

Fri Dec 6, 3:00am

Fri Dec 6, 2:10am

Fri Dec 6, 2:00am

Fri Dec 6, 1:10am

Fri Dec 6, 1:00am

Fri Dec 6, 12:10am

Fri Dec 6, 12:00am

Thu Dec 5, 11:10pm

Thu Dec 5, 11:00pm

Thu Dec 5, 10:10pm

Thu Dec 5, 10:01pm

Thu Dec 5, 9:10pm

Thu Dec 5, 9:01pm

Thu Dec 5, 8:10pm

Thu Dec 5, 8:00pm

Thu Dec 5, 7:10pm

Thu Dec 5, 7:00pm

Thu Dec 5, 6:10pm

Thu Dec 5, 6:00pm

Thu Dec 5, 5:10pm

Thu Dec 5, 5:00pm

Thu Dec 5, 4:10pm

Thu Dec 5, 4:00pm

Meta data:

ID: 2681a1b7-65c4-410f-b490-a7d7fa29db21
Link: https://api.weather.gov/products/2681a1b7-65c4-410f-b490-a7d7fa29db21